Regional Weather Roundup
Issued by NWS

Home | Current Version | Previous Version | Text Only | Print | Product List | Glossary Off
Versions: 1 2 3 4 5 6 7 8 9 10 11 12 13 14 15 16 17 18 19 20 21 22 23 24 25 26 27 28 29 30 31 32 33 34 35 36 37 38 39 40 41 42 43 44 45 46 47 48 49 50

000
ASUS43 KLOT 282206
RWRIL

ILLINOIS REGIONAL WEATHER ROUNDUP
NATIONAL WEATHER SERVICE CHICAGO/ROMEOVILLE IL
400 PM CST SAT FEB 28 2015

NOTE: "FAIR" INDICATES FEW OR NO CLOUDS BELOW 12,000 FEET WITH NO
SIGNIFICANT WEATHER AND/OR OBSTRUCTIONS TO VISIBILITY.

* THESE STATIONS ARE NOT UNDER NWS QUALITY CONTROL. THEY ALSO MAY NOT
  REPORT WEATHER SUCH AS PRECIPITATION OR FOG.

ILZ001-002-007-009-015-016-024-282300-
NORTHWEST ILLINOIS

CITY           SKY/WX    TMP DP  RH WIND       PRES   REMARKS
MOLINE         CLOUDY    18   5  57 SE9       30.52F WCI   7
STERLING*      FAIR      16   7  67 E9        30.54F WCI   4
SAVANNA*       MOSUNNY   18   3  53 SE8       30.54F WCI   7
$$

ILZ003-004-008-010-011-017-018-282300-
NORTH CENTRAL ILLINOIS

CITY           SKY/WX    TMP DP  RH WIND       PRES   REMARKS
ROCKFORD       PTSUNNY   16   3  56 SE9       30.57F WCI   4
FREEPORT*      SUNNY     14   2  60 SE3       30.56S
ROCHELLE*      SUNNY     16   8  70 SE6       30.56S WCI   7
DE KALB*       SUNNY     15   4  60 SE8       30.55F WCI   5
PERU*          CLOUDY    21   9  61 E7        30.55F WCI  12
$$

ILZ005-006-012>014-019>023-282300-
NORTHEAST ILLINOIS

CITY           SKY/WX    TMP DP  RH WIND       PRES   REMARKS
CHICAGO-OHARE  PTSUNNY   19   3  49 S7        30.56F WCI  10
CHICAGO-MIDWAY PTSUNNY   23   2  40 S5        30.57F WCI  17
AURORA         MOSUNNY   20   5  52 SE7       30.56F WCI  11
LANSING*       MOSUNNY   21   5  50 SE6       30.57F WCI  14
JOLIET*        PTSUNNY   19   6  57 SE6       30.58F WCI  11
WAUKEGAN       SUNNY     18   7  62 E8        30.56F WCI   8
DUPAGE AIRPORT SUNNY     20   2  45 S8        30.55F WCI  10
KANKAKEE*      CLOUDY    22  11  63 E8        30.58S WCI  12
WHEELING       SUNNY     21  -3  35 S8        30.58F WCI  11
MORRIS*        PTSUNNY   20  10  63 SE5       30.56F WCI  14
ROMEOVILLE*    MOSUNNY   20   4  50 S8        30.57S WCI  10
NORTHERLY ISL    N/A     21   5  50 SE12        N/A  WCI   9
$$

LMZ740>746-282300-
SOUTHERN LAKE MICHIGAN

STATION/POSITION SKY/WX   TEMP    WIND        PRES    VSBY  WAVE
                          AIR SEA DIR/SP/G                  HT/PER
                          (F)     (DEG/KT/KT) (MB)    (MI)  (FT/S)
WAUKEGAN HARBOR            22     140/  8/ 10   N/A
HARRISON CRIB              19     100/ 11/ 13   N/A
BURNHAM HARBOR             20     120/  6/ 10   N/A
CALUMET HARBOR             21     170/  6/  9 1034.0F
MICHIGAN CITY              20     120/  8/ 11   N/A
$$

ILZ025>027-034>036-040-047-049-050-058-095>099-282300-
WEST-CENTRAL ILLINOIS

CITY           SKY/WX    TMP DP  RH WIND       PRES   REMARKS
QUINCY         LGT SNOW  20  16  84 SE5       30.48F VSB 3/4 WCI  13
GALESBURG*     LGT SNOW  21  13  71 S8        30.51F WCI  11
MACOMB*        LGT SNOW  21  15  76 S8        30.52F WCI  12
JACKSONVILLE*  LGT SNOW  23  19  85 E8        30.50F VSB 1   WCI  14
PITTSFIELD*    LGT SNOW  22  19  88 SE5       30.50S VSB 1   WCI  16
$$

ILZ028>032-037-038-041>044-048-051>054-059>061-282300-
CENTRAL ILLINOIS

CITY           SKY/WX    TMP DP  RH WIND       PRES   REMARKS
PONTIAC        CLOUDY    22  14  74 E10       30.56F WCI  11
BLOOMINGTON    CLOUDY    23  13  65 SE9       30.53F WCI  13
DECATUR        LGT SNOW  24  14  65 SE8       30.52F WCI  15
PEORIA         CLOUDY    25  10  53 S9        30.52F WCI  15
LACON*         PTSUNNY   19  10  68 E10       30.53F WCI   8
LINCOLN*       LGT SNOW  24  15  68 SE8       30.55F WCI  16
SPRINGFIELD    LGT SNOW  23  16  74 E9        30.52F WCI  13
TAYLORVILLE    LGT SNOW  23  18  80 SE6       30.52F WCI  16
$$

ILZ033-039-045-046-055>057-062-063-282300-
EAST-CENTRAL ILLINOIS

CITY           SKY/WX    TMP DP  RH WIND       PRES   REMARKS
CHAMPAIGN      CLOUDY    23  11  60 E7        30.53F WCI  15
DANVILLE*      CLOUDY    24   9  53 E7        30.52F WCI  16
RANTOUL*       CLOUDY    26  12  55 SE6       30.54F WCI  20
MATTOON        FLURRIES  24  12  60 SE8       30.51F WCI  15
PARIS*         CLOUDY    28   7  41 CALM      30.54F
$$

ILZ079-100>102-282300-
SOUTHWEST ILLINOIS

CITY           SKY/WX    TMP DP  RH WIND       PRES   REMARKS
BELLEVILLE     LGT SNOW  25  25 100 E6        30.49F VSB 1   WCI  18
CAHOKIA*       SNOW      26  23  88 SE5       30.49F VSB 1/2 WCI  20
SPARTA*        SNOW      25  23  92 E3        30.50F VSB 1/2
$$

ILZ064>066-069>071-074>076-080>082-084>086-088>090-092>094-282300-
SOUTH-CENTRAL ILLINOIS

CITY           SKY/WX    TMP DP  RH WIND       PRES   REMARKS
CARBONDALE     CLOUDY    31  17  56 NE3       30.49F
CAIRO*         CLOUDY    35  20  53 NE7       30.46F WCI  29
EFFINGHAM*     LGT SNOW  25  15  66 E9        30.54S WCI  15
MARION         CLOUDY    34  16  47 E6        30.49F WCI  29
MT. VERNON     CLOUDY    28  18  64 E6        30.51F WCI  22
CENTRALIA*     LGT SNOW  26  22  85 CALM      30.50F VSB 3/4
SALEM*         LGT SNOW  28  23  81 E5        30.51F VSB 3/4 WCI  23
METROPOLIS*    CLOUDY    36  19  50 NE5       30.46F WCI  32
$$

ILZ067-068-072-073-078-083-087-091-282300-
SOUTHEAST ILLINOIS

CITY           SKY/WX    TMP DP  RH WIND       PRES   REMARKS
LAWRENCEVILLE  CLOUDY    30  15  53 E7        30.53F WCI  23
FLORA*         CLOUDY    29  16  59 E5        30.53F WCI  23
FAIRFIELD*     CLOUDY    31  17  54 SE6       30.51S WCI  26
HARRISBURG*    CLOUDY    32  18  56 E5        30.51S WCI  27
ROBINSON*      CLOUDY    30  12  47 SE6       30.55S WCI  24
CARMI*         CLOUDY    35  22  59 E6        30.50F WCI  29
$$

ABBREVIATIONS USED IN REMARKS
   TC - TEMPERATURE IN CELSIUS
  WCI - WIND CHILL INDEX
   HX - HEAT INDEX
  VSB - VISIBILITY
$$




USA.gov is the U.S. government's official web portal to all federal, state and local government web resources and services.